Torna al catalogo

LAOSAT 1

AttivoComunicazioniGEO
NORAD 41034·PAYLOAD·🇱🇦 Laos

Lanciato Nov 20, 2015 da Xichang Satellite Launch Center

Loading…

TLE

AggiornatoSource: Space-Track

Epoca: Sep 14, 2026, 21:15 UTC

1 41034U 15067A   26257.88568726  .00000000  00000-0  00000-0 0  9993
2 41034   0.0062 348.4627 0002522 126.1730 326.5861  1.00270545 39756

Traccia LAOSAT 1 in tempo reale con AllMySat

Download on the App Store